SM6KNE Weather Reports


time (UTC)temp
C
wind
direction
speed
KPH
gust
KPH
rain 1hr
cm
rain 24hr
cm
rain mn
cm
humidity
%
barometer
mb
20260507220544 3 0.0 0.0 0.00 0.00 0.00 40 1020.1
20260507215523 4 0.0 0.0 0.00 0.00 0.00 38 1020.3
20260507214524 5 0.0 0.0 0.00 0.00 0.00 37 1021.1
20260507213524 5 0.0 0.0 0.00 0.00 0.00 37 1020.1
20260507212523 5 0.0 0.0 0.00 0.00 0.00 36 1020.1
20260507211524 5 0.0 0.0 0.00 0.00 0.00 35 1020.1
20260507210527 6 0.0 0.0 0.00 0.00 0.00 34 1020.1
20260507205524 6 0.0 0.0 0.00 0.00 0.00 33 1020.1
20260507204603 6 0.0 0.0 0.00 0.00 0.00 32 1020.1
20260507203524 7 0.0 0.0 0.00 0.00 0.00 31 1020.1
20260507202525 7 0.0 0.0 0.00 0.00 0.00 30 1020.1
20260507201543 8 0.0 0.0 0.00 0.00 0.00 29 1020.1
20260507200522 8 0.0 0.0 0.00 0.00 0.00 28 1020.1
20260507195524 8 0.0 0.0 0.00 0.00 0.00 28 1019.9
20260507194518 9 0.0 0.0 0.00 0.00 0.00 27 1019.1
20260507193521 10 0.0 0.0 0.00 0.00 0.00 26 1019.1
20260507192523 11 0.0 0.0 0.00 0.00 0.00 23 1019.1
20260507191524 11 0.0 0.0 0.00 0.00 0.00 22 1019.1
20260507190523 12 293 0.0 3.2 0.00 0.00 0.00 21 1019.1
20260507185544 12 293 0.0 1.6 0.00 0.00 0.00 21 1019.1
20260507184523 13 293 0.0 1.6 0.00 0.00 0.00 20 1019.1
20260507183523 13 0.0 0.0 0.00 0.00 0.00 21 1019.1
20260507182524 13 293 0.0 1.6 0.00 0.00 0.00 20 1019.1
20260507181607 14 280 3.2 8.0 0.00 0.00 0.00 20 1019.1
20260507180523 15 293 6.4 11.3 0.00 0.00 0.00 20 1018.1
20260507175524 15 270 9.7 9.7 0.00 0.00 0.00 20 1018.1
20260507174525 15 275 11.3 12.9 0.00 0.00 0.00 19 1018.1
20260507173523 16 293 11.3 14.5 0.00 0.00 0.00 19 1018.1
20260507172523 16 267 12.9 16.1 0.00 0.00 0.00 19 1018.1
20260507171523 18 279 9.7 11.3 0.00 0.00 0.00 19 1018.1
20260507170523 18 280 9.7 12.9 0.00 0.00 0.00 19 1018.1
20260507165524 18 288 12.9 16.1 0.00 0.00 0.00 18 1018.1
20260507164523 20 259 14.5 17.7 0.00 0.00 0.00 18 1018.1
20260507163542 21 308 6.4 9.7 0.00 0.00 0.00 19 1018.1
20260507162526 21 290 9.7 14.5 0.00 0.00 0.00 18 1018.1
20260507161525 21 259 11.3 16.1 0.00 0.00 0.00 18 1018.1
20260507160546 21 292 12.9 16.1 0.00 0.00 0.00 17 1018.1
20260507155523 22 288 9.7 12.9 0.00 0.00 0.00 17 1018.1
20260507154520 23 285 8.0 12.9 0.00 0.00 0.00 17 1018.1
20260507153524 23 280 9.7 14.5 0.00 0.00 0.00 17 1017.1
20260507152604 23 266 12.9 17.7 0.00 0.00 0.00 17 1017.1
20260507151517 23 290 11.3 12.9 0.00 0.00 0.00 17 1017.1
20260507150523 23 265 11.3 16.1 0.00 0.00 0.00 18 1017.1
20260507145524 23 283 11.3 17.7 0.00 0.00 0.00 18 1017.1
20260507144515 24 275 11.3 14.5 0.00 0.00 0.00 17 1017.1
20260507143524 24 280 9.7 16.1 0.00 0.00 0.00 18 1017.1
20260507142523 23 272 12.9 17.7 0.00 0.00 0.00 17 1017.1
20260507141522 24 285 12.9 16.1 0.00 0.00 0.00 19 1017.1
20260507140521 26 267 14.5 17.7 0.00 0.00 0.00 19 1017.1
20260507135539 26 289 9.7 11.3 0.00 0.00 0.00 20 1017.1
20260507134516 25 276 6.4 11.3 0.00 0.00 0.00 20 1017.1
20260507133517 25 274 4.8 17.7 0.00 0.00 0.00 20 1017.1
20260507132523 27 273 4.8 9.7 0.00 0.00 0.00 22 1017.1
20260507131524 26 282 3.2 6.4 0.00 0.00 0.00 23 1017.1
20260507130523 24 272 4.8 11.3 0.00 0.00 0.00 23 1017.1
20260507125527 24 269 16.1 17.7 0.00 0.00 0.00 24 1017.1
20260507124525 25 256 6.4 17.7 0.00 0.00 0.00 24 1017.1
20260507123524 23 32 3.2 6.4 0.00 0.00 0.00 25 1017.1
20260507122532 22 267 11.3 17.7 0.00 0.00 0.00 25 1017.1
20260507121526 22 299 8.0 16.1 0.00 0.00 0.00 27 1017.1
20260507120523 23 278 9.7 9.7 0.00 0.00 0.00 27 1017.1
20260507115523 24 338 0.0 3.2 0.00 0.00 0.00 26 1017.1
20260507114524 22 293 6.4 9.7 0.00 0.00 0.00 28 1017.1
20260507113544 23 272 8.0 19.3 0.00 0.00 0.00 28 1017.1
20260507112523 23 300 0.0 1.6 0.00 0.00 0.00 29 1017.1
20260507111523 23 0.0 0.0 0.00 0.00 0.00 29 1017.1
20260507110524 21 293 3.2 4.8 0.00 0.00 0.00 30 1017.1
20260507105523 18 293 0.0 3.2 0.00 0.00 0.00 31 1017.1
20260507104528 20 330 8.0 14.5 0.00 0.00 0.00 32 1017.1
20260507103523 20 298 6.4 9.7 0.00 0.00 0.00 32 1017.1
20260507102524 19 248 1.6 4.8 0.00 0.00 0.00 33 1017.1
20260507101524 19 261 6.4 11.3 0.00 0.00 0.00 33 1017.1
20260507100516 18 275 14.5 17.7 0.00 0.00 0.00 38 1016.1
20260507095544 17 258 4.8 8.0 0.00 0.00 0.00 38 1016.1
20260507094523 18 315 0.0 1.6 0.00 0.00 0.00 42 1016.1
20260507093523 17 293 0.0 3.2 0.00 0.00 0.00 45 1016.1
20260507092543 16 259 6.4 9.7 0.00 0.00 0.00 48 1016.1
20260507091524 15 0.0 0.0 0.00 0.00 0.00 48 1016.1
20260507090523 15 293 0.0 3.2 0.00 0.00 0.00 50 1016.1
20260507085524 13 268 4.8 9.7 0.00 0.00 0.00 51 1016.1
20260507084524 13 267 1.6 6.4 0.00 0.00 0.00 52 1016.1
20260507083524 12 23 1.6 4.8 0.00 0.00 0.00 54 1016.1
20260507082523 12 0.0 0.0 0.00 0.00 0.00 54 1016.1
20260507081521 11 264 9.7 12.9 0.00 0.00 0.00 55 1016.1
20260507080519 11 256 4.8 8.0 0.00 0.00 0.00 56 1016.1
20260507075517 10 256 3.2 9.7 0.00 0.00 0.00 59 1016.1
20260507074603 10 248 1.6 6.4 0.00 0.00 0.00 62 1016.1
20260507073523 9 248 1.6 3.2 0.00 0.00 0.00 63 1016.1
20260507072523 8 254 6.4 14.5 0.00 0.00 0.00 64 1016.1
20260507071524 8 253 6.4 9.7 0.00 0.00 0.00 66 1016.1
20260507070527 7 248 1.6 8.0 0.00 0.00 0.00 68 1016.1
20260507065519 7 249 6.4 9.7 0.00 0.00 0.00 69 1016.1
20260507064523 6 293 0.0 1.6 0.00 0.00 0.00 70 1016.1
20260507063523 5 0.0 0.0 0.00 0.00 0.00 71 1016.1
20260507062538 4 0.0 0.0 0.00 0.00 0.00 71 1016.1
20260507061523 3 0.0 0.0 0.00 0.00 0.00 70 1016.1
20260507060524 2 0.0 0.0 0.00 0.00 0.00 70 1016.1
20260507055519 2 0.0 0.0 0.00 0.00 0.00 69 1016.1
20260507054523 1 0.0 0.0 0.00 0.00 0.00 69 1016.1
20260507053523 1 0.0 0.0 0.00 0.00 0.00 69 1015.1
20260507052523 0 0.0 0.0 0.00 0.00 0.00 68 1015.1
20260507051524 0 0.0 0.0 0.00 0.00 0.00 68 1015.1
20260507050523 0 0.0 0.0 0.00 0.00 0.00 68 1015.1
20260507045523 0 0.0 0.0 0.00 0.00 0.00 68 1015.1
20260507044524 0 0.0 0.0 0.00 0.00 0.00 67 1015.1
20260507043524 0 0.0 0.0 0.00 0.00 0.00 67 1015.1
20260507042516 -1 0.0 0.0 0.00 0.00 0.00 67 1015.1
20260507041543 -1 0.0 0.0 0.00 0.00 0.00 67 1015.1
20260507040523 -1 0.0 0.0 0.00 0.00 0.00 66 1015.1
20260507035523 -1 0.0 0.0 0.00 0.00 0.00 66 1015.1
20260507034604 -1 0.0 0.0 0.00 0.00 0.00 66 1015.1
20260507033523 -1 0.0 0.0 0.00 0.00 0.00 65 1015.1
20260507032523 -1 0.0 0.0 0.00 0.00 0.00 65 1015.1
20260507031522 -1 0.0 0.0 0.00 0.00 0.00 65 1015.1
20260507030547 -1 0.0 0.0 0.00 0.00 0.00 65 1015.1
20260507025604 -1 0.0 0.0 0.00 0.00 0.00 64 1015.1
20260507024521 -1 0.0 0.0 0.00 0.00 0.00 64 1015.1
20260507023522 -1 0.0 0.0 0.00 0.00 0.00 64 1015.1
20260507022522 -1 0.0 0.0 0.00 0.00 0.00 63 1015.1
20260507021518 0 0.0 0.0 0.00 0.00 0.00 63 1015.1
20260507020517 0 0.0 0.0 0.00 0.00 0.00 63 1015.1
20260507015523 0 0.0 0.0 0.00 0.00 0.00 63 1014.9
20260507014524 0 0.0 0.0 0.00 0.00 0.00 62 1014.1
20260507013523 0 0.0 0.0 0.00 0.00 0.00 62 1014.1
20260507012524 0 0.0 0.0 0.00 0.00 0.00 61 1014.1
20260507011523 0 0.0 0.0 0.00 0.00 0.00 61 1014.1
20260507010523 0 0.0 0.0 0.00 0.00 0.00 60 1014.1
20260507005523 0 0.0 0.0 0.00 0.00 0.00 60 1014.1
20260507004523 0 0.0 0.0 0.00 0.00 0.00 60 1014.1
20260507003524 0 0.0 0.0 0.00 0.00 0.00 60 1014.1
20260507002523 0 0.0 0.0 0.00 0.00 0.00 59 1014.1
20260507001524 0 0.0 0.0 0.00 0.00 0.00 58 1014.1
20260507000544 1 0.0 0.0 0.00 0.00 0.00 58 1014.1
20260506235524 1 0.0 0.0 0.00 0.00 0.00 57 1014.1
20260506234523 1 0.0 0.0 0.00 0.00 0.00 56 1014.1
20260506233523 1 0.0 0.0 0.00 0.00 0.00 56 1014.1
20260506232523 1 0.0 0.0 0.00 0.00 0.00 56 1014.1
20260506231516 2 0.0 0.0 0.00 0.00 0.00 56 1014.1
20260506230523 2 0.0 0.0 0.00 0.00 0.00 55 1014.1
20260506225523 2 0.0 0.0 0.00 0.00 0.00 55 1014.1
20260506224525 2 0.0 0.0 0.00 0.00 0.00 55 1014.1
20260506223544 2 0.0 0.0 0.00 0.00 0.00 54 1013.1
20260506222523 2 0.0 0.0 0.00 0.00 0.00 53 1013.1
20260506221523 3 0.0 0.0 0.00 0.00 0.00 52 1013.1